Regional Weather Roundup
Issued by NWS

Home | Current Version | Previous Version | Graphics & Text | Print | Product List | Glossary On
Versions: 1 2 3 4 5 6 7 8 9 10 11 12 13 14 15 16 17 18 19 20 21 22 23 24 25 26 27 28 29 30 31 32 33 34 35 36 37 38 39 40 41 42 43 44 45 46 47 48 49 50
000
ASUS43 KFSD 300002
RWRSD

WEATHER ROUNDUP FOR SOUTH DAKOTA
NATIONAL WEATHER SERVICE SIOUX FALLS SD
700 PM CDT MON AUG 29 2016

NOTE: "FAIR" INDICATES FEW OR NO CLOUDS BELOW 12,000 FEET WITH NO
SIGNIFICANT WEATHER AND/OR OBSTRUCTIONS TO VISIBILITY.


SDZ001>005-009-010-012>017-300100-
NORTHWEST AND NORTH CENTRAL SOUTH DAKOTA

CITY           SKY/WX    TMP DP  RH WIND       PRES   REMARKS
BUFFALO          N/A     82  44  26 E13       30.17F
FAITH            N/A     80  48  32 NE12      30.20S
MOBRIDGE       SUNNY     84  52  33 NE13      30.16S
$$

SDZ012>016-024>037-041>051-057-063-072>074-300100-
SOUTHWEST AND SOUTH CENTRAL SOUTH DAKOTA

CITY           SKY/WX    TMP DP  RH WIND       PRES   REMARKS
RAPID CTY ARPT SUNNY     82  57  42 E7        30.23R
PIERRE         CLOUDY    86  65  49 NE15      30.10S
CUSTER         CLOUDY    71  50  47 E12       30.37S
ELLSWORTH AFB  SUNNY     82  56  41 E6        30.22S
PHILIP         PTSUNNY   85  67  54 NE9       30.14S
PINE RIDGE     CLOUDY    83  61  47 NE7       30.20S
WINNER         FAIR      85  67  54 S10       30.13S
$$

SDZ004>011-016>023-039-040-300100-
NORTHEAST SOUTH DAKOTA

CITY           SKY/WX    TMP DP  RH WIND       PRES   REMARKS
ABERDEEN       SUNNY     82  68  62 NE13      30.14S
WATERTOWN      MOSUNNY   83  70  64 S6        30.13F
SISSETON         N/A     81  70  69 NE8       30.12S
$$

SDZ017-020-022-023-036>040-048>070-300100-
SOUTHEAST SOUTH DAKOTA

CITY           SKY/WX    TMP DP  RH WIND       PRES   REMARKS
SIOUX FALLS    CLOUDY    79  68  69 SW5       30.15R
HURON          CLOUDY    85  69  58 S9        30.10R
CHAMBERLAIN    CLOUDY    86  69  56 S5        30.11R
MITCHELL       MOSUNNY   84  67  56 S7        30.12R
YANKTON        PTSUNNY   79  68  69 SE6       30.13R
$$

ABBREVIATIONS USED IN REMARKS
   TC - TEMPERATURE IN CELSIUS
  WCI - WIND CHILL INDEX
   HX - HEAT INDEX
  VSB - VISIBILITY




USA.gov is the U.S. government's official web portal to all federal, state and local government web resources and services.